Change the Weather History Date:

Monday, May 27, 2013

  Actual Average Record
Temperature  
Mean Temperature 52 °F -  
Max Temperature 54 °F 65 °F 91 °F (1978)
Min Temperature 49 °F 47 °F 33 °F (1971)
Degree Days  
Heating Degree Days 14    
Growing Degree Days 2 (Base 50)    
Moisture  
Dew Point 44 °F    
Average Humidity 77    
Maximum Humidity 99    
Minimum Humidity 44    
Precipitation  
Precipitation 0.02 in - - ()
Sea Level Pressure  
Sea Level Pressure 30.03 in    
Wind  
Wind Speed 11 mph (East)    
Max Wind Speed 22 mph    
Max Gust Speed 28 mph    
Visibility 8 miles    
Events Rain    
Averages and records for this station are not official NWS values.
T = Trace of Precipitation, MM = Missing Value Source: NWS Daily Summary

Daily Weather History Graph

Daily Weather History Graph

Search for Another Location

Airport or City:

Trip Planner

Search our weather history database for the weather conditions in past years. The results will help you decide how hot, cold, wet, or windy it might be!

Date:

Astronomy

May. 27, 2013 Rise Set
Actual Time 5:19 AM CDT 8:24 PM CDT
Civil Twilight 4:45 AM CDT 8:59 PM CDT
Nautical Twilight 4:01 AM CDT 9:43 PM CDT
Astronomical Twilight 3:08 AM CDT 10:36 PM CDT
Moon 11:01 PM CDT (5/27) 7:58 AM CDT (5/27)
Length of Visible Light 16h 13m
Length of Day
15h 05m
Waning Gibbous, 91% of the Moon is Illuminated
May 27
Waning Gibbous
May 31
Last Quarter
Jun 8
New
Jun 16
First Quarter
Jun 23
Full

Hourly Weather History & Observations

Time (CDT) Temp. Dew Point Humidity Pressure Visibility Wind Dir Wind Speed Gust Speed Precip Events Conditions
12:15 AM 53.1 °F 32.2 °F 45% 30.19 in 10.0 mi ENE 8.1 mph - N/A   Overcast
12:35 AM 53.1 °F 32.0 °F 45% 30.18 in 10.0 mi ENE 8.1 mph - N/A   Overcast
12:55 AM 53.1 °F 32.2 °F 45% 30.16 in 10.0 mi ENE 9.2 mph - N/A   Overcast
1:15 AM 53.1 °F 32.0 °F 45% 30.15 in 10.0 mi ENE 8.1 mph - N/A   Overcast
1:35 AM 53.1 °F 31.8 °F 44% 30.15 in 10.0 mi East 6.9 mph - N/A   Overcast
1:55 AM 52.9 °F 32.0 °F 45% 30.14 in 10.0 mi East 6.9 mph - N/A   Overcast
2:15 AM 52.9 °F 32.2 °F 45% 30.14 in 10.0 mi East 10.4 mph - N/A   Overcast
2:35 AM 52.7 °F 32.5 °F 46% 30.12 in 10.0 mi East 11.5 mph - N/A   Overcast
2:55 AM 52.7 °F 33.1 °F 47% 30.12 in 10.0 mi ENE 9.2 mph - N/A   Overcast
3:15 AM 52.9 °F 33.1 °F 47% 30.11 in 10.0 mi East 8.1 mph - N/A   Overcast
3:35 AM 52.9 °F 33.6 °F 48% 30.09 in 10.0 mi ENE 9.2 mph - N/A   Overcast
3:55 AM 52.3 °F 34.7 °F 51% 30.09 in 10.0 mi East 8.1 mph - N/A   Overcast
4:15 AM 52.3 °F 36.0 °F 54% 30.09 in 10.0 mi East 6.9 mph - N/A   Overcast
4:35 AM 52.9 °F 36.7 °F 54% 30.09 in 10.0 mi East 9.2 mph - N/A   Overcast
4:55 AM 52.9 °F 37.4 °F 56% 30.09 in 10.0 mi East 6.9 mph - N/A   Overcast
5:15 AM 53.6 °F 37.6 °F 55% 30.09 in 10.0 mi East 8.1 mph - N/A   Overcast
5:35 AM 53.2 °F 38.3 °F 57% 30.08 in 10.0 mi East 9.2 mph - N/A   Overcast
5:55 AM 53.6 °F 38.7 °F 57% 30.08 in 10.0 mi East 6.9 mph - N/A   Overcast
6:15 AM 53.6 °F 38.8 °F 57% 30.09 in 10.0 mi East 6.9 mph - N/A   Overcast
6:35 AM 53.8 °F 38.1 °F 55% 30.09 in 10.0 mi East 6.9 mph - N/A   Overcast
6:55 AM 54.0 °F 37.2 °F 53% 30.09 in 10.0 mi East 9.2 mph - N/A   Overcast
7:15 AM 54.5 °F 37.0 °F 52% 30.09 in 10.0 mi East 8.1 mph - N/A   Overcast
7:35 AM 53.2 °F 39.4 °F 59% 30.09 in 10.0 mi East 10.4 mph - N/A   Light Drizzle
7:55 AM 53.1 °F 39.7 °F 61% 30.10 in 10.0 mi East 8.1 mph - N/A   Overcast
8:15 AM 53.6 °F 40.1 °F 60% 30.10 in 10.0 mi East 10.4 mph - N/A   Overcast
8:35 AM 54.0 °F 42.3 °F 65% 30.09 in 10.0 mi ESE 12.7 mph 17.3 mph N/A   Overcast
8:55 AM 54.0 °F 45.5 °F 73% 30.09 in 10.0 mi ESE 12.7 mph 18.4 mph N/A   Overcast
9:15 AM 53.1 °F 47.5 °F 81% 30.07 in 4.0 mi ESE 17.3 mph 24.2 mph N/A   Drizzle
9:35 AM 52.3 °F 49.1 °F 89% 30.07 in 2.0 mi East 16.1 mph 24.2 mph N/A Rain Light Rain
9:55 AM 52.2 °F 50.0 °F 92% 30.05 in 4.0 mi East 13.8 mph 24.2 mph N/A Rain Light Rain
10:15 AM 52.7 °F 50.9 °F 94% 30.04 in 10.0 mi East 15.0 mph - N/A   Overcast
10:35 AM 53.1 °F 50.2 °F 90% 30.04 in 10.0 mi East 15.0 mph 23.0 mph N/A   Overcast
10:55 AM 53.8 °F 50.0 °F 87% 30.03 in 10.0 mi East 19.6 mph 26.5 mph N/A   Overcast
11:15 AM 53.8 °F 49.3 °F 85% 30.04 in 10.0 mi ESE 20.7 mph 27.6 mph N/A   Overcast
11:35 AM 53.8 °F 49.6 °F 86% 30.05 in 10.0 mi ESE 15.0 mph 23.0 mph N/A   Overcast
11:55 AM 53.4 °F 49.6 °F 87% 30.06 in 10.0 mi ESE 12.7 mph 23.0 mph N/A   Overcast
12:15 PM 53.8 °F 49.8 °F 86% 30.05 in 10.0 mi ESE 17.3 mph 21.9 mph N/A   Overcast
12:35 PM 54.0 °F 49.8 °F 86% 30.05 in 10.0 mi ESE 21.9 mph - N/A   Overcast
12:55 PM 53.8 °F 49.5 °F 85% 30.04 in 10.0 mi East 15.0 mph 23.0 mph N/A   Overcast
1:15 PM 54.0 °F 49.6 °F 85% 30.04 in 10.0 mi East 12.7 mph - N/A   Overcast
1:35 PM 53.8 °F 49.5 °F 85% 30.03 in 10.0 mi East 15.0 mph 20.7 mph N/A   Overcast
1:55 PM 53.8 °F 49.3 °F 85% 30.03 in 10.0 mi East 16.1 mph 21.9 mph N/A   Overcast
2:15 PM 53.2 °F 49.1 °F 86% 30.02 in 10.0 mi East 17.3 mph - N/A   Overcast
2:35 PM 52.7 °F 48.7 °F 86% 30.01 in 10.0 mi East 17.3 mph 23.0 mph N/A   Overcast
2:55 PM 52.5 °F 48.7 °F 87% 29.99 in 10.0 mi East 18.4 mph 27.6 mph N/A   Overcast
3:15 PM 52.3 °F 48.6 °F 87% 30.01 in 10.0 mi East 17.3 mph 23.0 mph N/A   Overcast
3:35 PM 52.3 °F 48.7 °F 88% 30.01 in 10.0 mi ESE 15.0 mph - N/A   Overcast
3:55 PM 51.8 °F 48.2 °F 88% 29.99 in 10.0 mi East 16.1 mph 21.9 mph N/A   Overcast
4:15 PM 51.4 °F 48.0 °F 88% 29.97 in 10.0 mi East 17.3 mph 24.2 mph N/A   Overcast
4:35 PM 50.9 °F 47.5 °F 88% 29.97 in 10.0 mi East 15.0 mph 21.9 mph N/A   Overcast
4:55 PM 50.7 °F 47.7 °F 89% 29.97 in 10.0 mi East 12.7 mph 17.3 mph N/A   Overcast
5:15 PM 50.2 °F 47.7 °F 91% 29.99 in 7.0 mi East 10.4 mph - N/A   Overcast
5:35 PM 50.0 °F 48.2 °F 94% 29.98 in 5.0 mi East 13.8 mph 18.4 mph N/A   Overcast
5:55 PM 50.0 °F 48.7 °F 95% 29.97 in 3.0 mi East 12.7 mph - N/A   Overcast
6:15 PM 50.0 °F 49.1 °F 97% 29.96 in 2.5 mi East 13.8 mph - N/A   Light Drizzle
6:35 PM 49.6 °F 49.1 °F 98% 29.96 in 3.0 mi East 12.7 mph 19.6 mph N/A   Overcast
6:55 PM 49.6 °F 49.1 °F 98% 29.95 in 2.5 mi East 11.5 mph - N/A   Drizzle
7:15 PM 49.6 °F 49.1 °F 98% 29.95 in 3.0 mi East 13.8 mph - 0.02 in Rain Light Rain
7:35 PM 49.6 °F 49.1 °F 98% 29.95 in 5.0 mi East 11.5 mph - 0.02 in   Overcast
7:55 PM 49.5 °F 49.1 °F 99% 29.94 in 5.0 mi East 15.0 mph 19.6 mph 0.02 in   Overcast
8:15 PM 49.5 °F 49.1 °F 99% 29.94 in 5.0 mi East 12.7 mph 17.3 mph N/A   Overcast
8:35 PM 49.5 °F 49.1 °F 99% 29.94 in 4.0 mi East 12.7 mph - N/A   Overcast
8:55 PM 49.5 °F 49.1 °F 99% 29.93 in 4.0 mi East 13.8 mph 17.3 mph N/A   Overcast
9:15 PM 49.5 °F 49.1 °F 99% 29.92 in 3.0 mi East 10.4 mph - N/A   Overcast
9:35 PM 49.6 °F 49.3 °F 99% 29.93 in 3.0 mi East 10.4 mph 16.1 mph N/A   Overcast
9:55 PM 49.6 °F 49.3 °F 99% 29.93 in 2.0 mi East 10.4 mph - N/A   Overcast
10:15 PM 49.6 °F 49.5 °F 99% 29.93 in 2.0 mi East 9.2 mph - N/A   Overcast
10:35 PM 49.6 °F 49.5 °F 99% 29.94 in 1.8 mi East 8.1 mph - N/A   Overcast
10:55 PM 49.6 °F 49.5 °F 99% 29.94 in 1.2 mi East 6.9 mph - N/A   Overcast
11:15 PM 49.6 °F 49.5 °F 99% 29.93 in 1.0 mi East 8.1 mph - N/A   Overcast
11:35 PM 49.6 °F 49.5 °F 99% 29.93 in 1.2 mi East 6.9 mph - N/A   Overcast
11:55 PM 49.6 °F 49.5 °F 99% 29.92 in 1.2 mi ESE 10.4 mph - N/A   Overcast